MSR610 HECA-OKKK

Flight info

Callsign MSR610
Flight time 2h 16m
Altitude 39000
Route CVO L677 MENLI N697 SISIK W976 TAKSU L550 KARIK B411 DEESA Y415 LOTOK A788 KFR
Aircraft B738/M-SDE2E3FGHIRWXY/LB1

Departure

Time 2026-05-05 12:03
Airport Cairo International Airport (HECA)

Arrival

Time 2026-05-05 14:19
Airport Kuwait International Airport (OKKK)
Time Latitude Longitude Altitude Speed Heading
2026-05-05 11:38 30.10926 31.39628 369 ft 0 kts 256°
2026-05-05 11:55 30.10928 31.39654 369 ft 4 kts 283°
2026-05-05 11:55 30.10923 31.39681 369 ft 3 kts 250°
2026-05-05 11:55 30.10933 31.39705 369 ft 4 kts 232°
2026-05-05 11:55 30.10951 31.39720 369 ft 4 kts 174°
2026-05-05 11:56 30.10957 31.39719 369 ft 1 kts 165°
2026-05-05 11:58 30.10957 31.39720 369 ft 1 kts 165°
2026-05-05 11:59 30.10909 31.39735 369 ft 11 kts 165°
2026-05-05 11:59 30.10829 31.39759 369 ft 12 kts 166°
2026-05-05 11:59 30.10751 31.39781 369 ft 11 kts 166°
2026-05-05 11:59 30.10675 31.39804 369 ft 11 kts 165°
2026-05-05 12:00 30.10601 31.39827 370 ft 11 kts 165°
2026-05-05 12:00 30.10529 31.39849 374 ft 11 kts 165°
2026-05-05 12:00 30.10459 31.39870 377 ft 10 kts 165°
2026-05-05 12:00 30.10398 31.39850 379 ft 10 kts 229°
2026-05-05 12:01 30.10354 31.39790 380 ft 10 kts 230°
2026-05-05 12:01 30.10310 31.39732 383 ft 10 kts 229°
2026-05-05 12:01 30.10259 31.39663 385 ft 14 kts 229°
2026-05-05 12:01 30.10183 31.39571 388 ft 18 kts 208°
2026-05-05 12:02 30.10075 31.39633 388 ft 21 kts 139°
2026-05-05 12:02 30.09997 31.39754 387 ft 16 kts 89°
2026-05-05 12:02 30.10023 31.39897 387 ft 20 kts 63°
2026-05-05 12:02 30.10118 31.40029 387 ft 24 kts 49°
2026-05-05 12:03 30.10334 31.40317 389 ft 83 kts 49°
2026-05-05 12:03 30.10875 31.41036 388 ft 151 kts 49°
2026-05-05 12:03 30.11643 31.42055 678 ft 182 kts 48°
2026-05-05 12:03 30.12461 31.43144 1643 ft 179 kts 48°
2026-05-05 12:04 30.13180 31.44285 2634 ft 173 kts 67°
2026-05-05 12:04 30.13277 31.45673 3417 ft 179 kts 105°
2026-05-05 12:04 30.12657 31.47044 3831 ft 210 kts 123°
2026-05-05 12:04 30.11794 31.48530 4070 ft 236 kts 124°
2026-05-05 12:05 30.10849 31.50130 4488 ft 250 kts 124°
2026-05-05 12:05 30.09843 31.51827 5199 ft 256 kts 124°
2026-05-05 12:05 30.08844 31.53498 6134 ft 255 kts 124°
2026-05-05 12:05 30.07832 31.55186 7033 ft 258 kts 124°
2026-05-05 12:06 30.06848 31.56981 7587 ft 275 kts 117°
2026-05-05 12:06 30.05987 31.59020 8210 ft 287 kts 114°
2026-05-05 12:06 30.05148 31.61131 9031 ft 291 kts 114°
2026-05-05 12:06 30.04300 31.63269 9863 ft 295 kts 114°
2026-05-05 12:07 30.03429 31.65441 10525 ft 306 kts 114°
2026-05-05 12:07 30.02491 31.67756 10758 ft 331 kts 115°
2026-05-05 12:07 30.01488 31.70209 11304 ft 343 kts 115°
2026-05-05 12:07 30.00456 31.72713 12048 ft 348 kts 115°
2026-05-05 12:08 29.99406 31.75246 12824 ft 352 kts 115°
2026-05-05 12:08 29.98337 31.77815 13598 ft 358 kts 116°
2026-05-05 12:08 29.97251 31.80418 14347 ft 363 kts 116°
2026-05-05 12:08 29.96144 31.83066 15098 ft 369 kts 116°
2026-05-05 12:09 29.95019 31.85752 15844 ft 375 kts 116°
2026-05-05 12:09 29.93875 31.88479 16561 ft 381 kts 116°
2026-05-05 12:09 29.92712 31.91252 17256 ft 387 kts 116°
2026-05-05 12:09 29.91533 31.94064 17946 ft 393 kts 117°
2026-05-05 12:10 29.90337 31.96918 18610 ft 398 kts 117°
2026-05-05 12:10 29.89123 31.99809 19291 ft 403 kts 117°
2026-05-05 12:10 29.87895 32.02730 19973 ft 407 kts 117°
2026-05-05 12:10 29.86656 32.05676 20640 ft 411 kts 117°
2026-05-05 12:11 29.85421 32.08613 21258 ft 415 kts 117°
2026-05-05 12:11 29.84154 32.11617 21827 ft 420 kts 117°
2026-05-05 12:11 29.82872 32.14656 22395 ft 424 kts 117°
2026-05-05 12:11 29.81575 32.17728 22974 ft 428 kts 117°
2026-05-05 12:12 29.80267 32.20825 23532 ft 432 kts 117°
2026-05-05 12:12 29.78947 32.23947 24061 ft 436 kts 117°
2026-05-05 12:12 29.77615 32.27094 24577 ft 439 kts 117°
2026-05-05 12:12 29.76274 32.30262 25106 ft 442 kts 117°
2026-05-05 12:13 29.74920 32.33458 25610 ft 446 kts 117°
2026-05-05 12:13 29.73557 32.36672 26098 ft 449 kts 117°
2026-05-05 12:13 29.72182 32.39914 26567 ft 452 kts 117°
2026-05-05 12:13 29.70796 32.43177 27016 ft 455 kts 118°
2026-05-05 12:14 29.69401 32.46456 27451 ft 458 kts 118°
2026-05-05 12:14 29.67996 32.49758 27885 ft 461 kts 118°
2026-05-05 12:14 29.66580 32.53081 28298 ft 464 kts 118°
2026-05-05 12:14 29.65156 32.56423 28714 ft 467 kts 118°
2026-05-05 12:15 29.63722 32.59785 29102 ft 469 kts 118°
2026-05-05 12:15 29.62283 32.63156 29462 ft 472 kts 118°
2026-05-05 12:15 29.61005 32.66663 29816 ft 477 kts 109°
2026-05-05 12:15 29.60216 32.70378 30202 ft 481 kts 100°
2026-05-05 12:16 29.59913 32.74208 30543 ft 484 kts 90°
2026-05-05 12:16 29.59951 32.78083 30868 ft 486 kts 89°
2026-05-05 12:16 29.60032 32.81975 31183 ft 489 kts 89°
2026-05-05 12:16 29.60119 32.85891 31490 ft 491 kts 89°
2026-05-05 12:17 29.60195 32.89823 31792 ft 494 kts 89°
2026-05-05 12:17 29.60254 32.93777 32101 ft 495 kts 90°
2026-05-05 12:17 29.60301 32.97743 32480 ft 495 kts 90°
2026-05-05 12:17 29.60339 33.01689 32896 ft 494 kts 90°
2026-05-05 12:18 29.60371 33.05629 33294 ft 493 kts 90°
2026-05-05 12:18 29.60402 33.09563 33693 ft 491 kts 90°
2026-05-05 12:18 29.60431 33.13481 34055 ft 491 kts 90°
2026-05-05 12:18 29.60461 33.17405 34388 ft 491 kts 90°
2026-05-05 12:19 29.60490 33.21324 34698 ft 491 kts 90°
2026-05-05 12:19 29.60518 33.25235 35032 ft 491 kts 90°
2026-05-05 12:19 29.60545 33.29166 35369 ft 490 kts 91°
2026-05-05 12:19 29.60572 33.33082 35685 ft 490 kts 91°
2026-05-05 12:20 29.60596 33.36994 35970 ft 490 kts 91°
2026-05-05 12:20 29.60620 33.40914 36229 ft 490 kts 91°
2026-05-05 12:20 29.60643 33.44833 36488 ft 491 kts 91°
2026-05-05 12:20 29.60664 33.48753 36798 ft 490 kts 91°
2026-05-05 12:21 29.60684 33.52655 37201 ft 486 kts 91°
2026-05-05 12:21 29.60704 33.56517 37618 ft 482 kts 91°
2026-05-05 12:21 29.60722 33.60362 37897 ft 481 kts 91°
2026-05-05 12:21 29.60739 33.64207 38074 ft 483 kts 91°
2026-05-05 12:22 29.60753 33.68026 38188 ft 485 kts 91°
2026-05-05 12:22 29.60768 33.71966 38294 ft 488 kts 91°
2026-05-05 12:22 29.60782 33.75821 38435 ft 490 kts 91°
2026-05-05 12:22 29.60795 33.79790 38634 ft 490 kts 91°
2026-05-05 12:23 29.60804 33.83648 38884 ft 489 kts 91°
2026-05-05 12:23 29.60802 33.87550 39022 ft 490 kts 92°
2026-05-05 12:23 29.60784 33.95426 39021 ft 492 kts 92°
2026-05-05 12:24 29.60765 34.03253 39015 ft 488 kts 92°
2026-05-05 12:24 29.60743 34.11022 39022 ft 485 kts 92°
2026-05-05 12:25 29.60718 34.18767 39005 ft 484 kts 92°
2026-05-05 12:25 29.60695 34.26492 39027 ft 484 kts 92°
2026-05-05 12:26 29.60704 34.34225 39026 ft 484 kts 91°
2026-05-05 12:26 29.60712 34.41978 39029 ft 486 kts 92°
2026-05-05 12:27 29.60710 34.49750 39015 ft 488 kts 92°
2026-05-05 12:27 29.60364 34.57505 38994 ft 483 kts 110°
2026-05-05 12:28 29.59086 34.61024 39037 ft 474 kts 125°
2026-05-05 12:28 29.57155 34.64030 39018 ft 464 kts 140°
2026-05-05 12:28 29.52221 34.68705 39009 ft 460 kts 147°
2026-05-05 12:29 29.47248 34.73370 39007 ft 467 kts 140°
2026-05-05 12:29 29.45208 34.76308 39035 ft 476 kts 124°
2026-05-05 12:29 29.43791 34.79775 39008 ft 485 kts 111°
2026-05-05 12:30 29.43090 34.83579 39042 ft 489 kts 100°
2026-05-05 12:30 29.42663 34.87459 39011 ft 491 kts 99°
2026-05-05 12:30 29.41873 34.95235 39014 ft 494 kts 93°
2026-05-05 12:31 29.42623 35.03059 39008 ft 497 kts 75°
2026-05-05 12:31 29.44493 35.10693 39016 ft 497 kts 74°
2026-05-05 12:32 29.46361 35.18259 39016 ft 496 kts 75°
2026-05-05 12:32 29.48172 35.25885 39018 ft 495 kts 75°
2026-05-05 12:33 29.49951 35.33506 39010 ft 494 kts 75°
2026-05-05 12:33 29.51722 35.41098 39017 ft 492 kts 75°
2026-05-05 12:34 29.53490 35.48679 39022 ft 491 kts 75°
2026-05-05 12:34 29.55271 35.56249 39017 ft 491 kts 75°
2026-05-05 12:35 29.57053 35.63809 39001 ft 491 kts 75°
2026-05-05 12:35 29.58829 35.71382 39019 ft 491 kts 75°
2026-05-05 12:36 29.60603 35.78960 39011 ft 492 kts 75°
2026-05-05 12:36 29.62127 35.86602 39020 ft 493 kts 80°
2026-05-05 12:37 29.63359 35.94434 39011 ft 502 kts 81°
2026-05-05 12:37 29.64600 36.02358 39006 ft 507 kts 81°
2026-05-05 12:38 29.65893 36.10341 38998 ft 508 kts 80°
2026-05-05 12:38 29.67198 36.18333 38989 ft 509 kts 81°
2026-05-05 12:39 29.68489 36.26282 38991 ft 509 kts 81°
2026-05-05 12:39 29.69778 36.34265 38985 ft 507 kts 81°
2026-05-05 12:40 29.70854 36.40932 38993 ft 506 kts 80°
2026-05-05 12:40 29.72150 36.48893 38992 ft 505 kts 80°
2026-05-05 12:41 29.73438 36.56839 38994 ft 505 kts 81°
2026-05-05 12:41 29.74677 36.64779 38988 ft 504 kts 85°
2026-05-05 12:42 29.74548 36.72774 38973 ft 497 kts 103°
2026-05-05 12:42 29.73022 36.80443 38972 ft 495 kts 107°
2026-05-05 12:43 29.71395 36.88190 38967 ft 495 kts 107°
2026-05-05 12:43 29.69829 36.95857 38970 ft 495 kts 107°
2026-05-05 12:44 29.68281 37.03565 38966 ft 495 kts 106°
2026-05-05 12:44 29.66735 37.11280 38960 ft 495 kts 107°
2026-05-05 12:45 29.65184 37.18987 38960 ft 495 kts 107°
2026-05-05 12:45 29.63627 37.26686 38964 ft 494 kts 107°
2026-05-05 12:46 29.62067 37.34372 38963 ft 494 kts 107°
2026-05-05 12:46 29.61886 37.35264 38966 ft 494 kts 107°
2026-05-05 12:47 29.60640 37.41380 38956 ft 494 kts 107°
2026-05-05 12:47 29.59073 37.49066 38962 ft 494 kts 107°
2026-05-05 12:48 29.57501 37.56742 38965 ft 494 kts 107°
2026-05-05 12:48 29.55924 37.64419 38963 ft 493 kts 107°
2026-05-05 12:49 29.54345 37.72082 38963 ft 494 kts 107°
2026-05-05 12:49 29.52765 37.79731 38965 ft 494 kts 107°
2026-05-05 12:50 29.51175 37.87399 38980 ft 493 kts 107°
2026-05-05 12:50 29.49581 37.95061 38982 ft 494 kts 107°
2026-05-05 12:51 29.48032 38.02683 38980 ft 494 kts 105°
2026-05-05 12:51 29.46667 38.10419 38981 ft 495 kts 104°
2026-05-05 12:52 29.45337 38.18169 38987 ft 495 kts 105°
2026-05-05 12:52 29.43974 38.25911 38986 ft 495 kts 105°
2026-05-05 12:53 29.42591 38.33638 38997 ft 495 kts 105°
2026-05-05 12:53 29.41201 38.41364 39005 ft 495 kts 105°
2026-05-05 12:54 29.39108 38.52959 38992 ft 495 kts 105°
2026-05-05 12:55 29.37709 38.60685 38998 ft 495 kts 105°
2026-05-05 12:55 29.36306 38.68400 39020 ft 495 kts 105°
2026-05-05 12:56 29.34896 38.76132 39016 ft 496 kts 105°
2026-05-05 12:56 29.33480 38.83872 39010 ft 496 kts 105°
2026-05-05 12:57 29.32055 38.91605 39013 ft 496 kts 106°
2026-05-05 12:57 29.30483 38.99288 39015 ft 495 kts 108°
2026-05-05 12:58 29.28842 39.06952 39017 ft 495 kts 108°
2026-05-05 12:58 29.27214 39.14617 39014 ft 495 kts 108°
2026-05-05 12:59 29.25598 39.22288 39031 ft 495 kts 107°
2026-05-05 12:59 29.23982 39.29953 39028 ft 495 kts 107°
2026-05-05 13:00 29.21553 39.41443 39027 ft 495 kts 108°
2026-05-05 13:01 29.18293 39.56755 39029 ft 495 kts 108°
2026-05-05 13:01 29.16669 39.64350 39035 ft 495 kts 108°
2026-05-05 13:02 29.15019 39.72045 39042 ft 495 kts 108°
2026-05-05 13:02 29.13387 39.79635 39040 ft 495 kts 108°
2026-05-05 13:03 29.11740 39.87272 39038 ft 494 kts 108°
2026-05-05 13:03 29.10224 39.94946 39034 ft 496 kts 104°
2026-05-05 13:04 29.09018 40.02721 39039 ft 497 kts 103°
2026-05-05 13:04 29.07846 40.10502 39036 ft 497 kts 104°
2026-05-05 13:05 29.06627 40.18276 39028 ft 497 kts 104°
2026-05-05 13:05 29.05382 40.26040 39032 ft 497 kts 104°
2026-05-05 13:06 29.04130 40.33812 39029 ft 497 kts 104°
2026-05-05 13:06 29.02876 40.41573 39023 ft 497 kts 104°
2026-05-05 13:07 29.01618 40.49345 39015 ft 497 kts 104°
2026-05-05 13:07 29.00365 40.57063 39020 ft 497 kts 104°
2026-05-05 13:08 28.99099 40.64828 39023 ft 497 kts 104°
2026-05-05 13:08 28.97829 40.72584 39003 ft 497 kts 104°
2026-05-05 13:09 28.96555 40.80343 39013 ft 497 kts 104°
2026-05-05 13:09 28.95278 40.88102 39008 ft 497 kts 104°
2026-05-05 13:10 28.93998 40.95854 38997 ft 497 kts 104°
2026-05-05 13:10 28.92712 41.03604 39007 ft 497 kts 104°
2026-05-05 13:11 28.91420 41.11357 38998 ft 497 kts 105°
2026-05-05 13:11 28.90128 41.19108 38986 ft 497 kts 105°
2026-05-05 13:12 28.88828 41.26863 38991 ft 497 kts 105°
2026-05-05 13:12 28.87524 41.34615 38993 ft 498 kts 105°
2026-05-05 13:13 28.86215 41.42376 38985 ft 498 kts 105°
2026-05-05 13:13 28.84902 41.50128 38984 ft 498 kts 105°
2026-05-05 13:14 28.83586 41.57884 38980 ft 498 kts 105°
2026-05-05 13:14 28.82276 41.65581 38980 ft 498 kts 105°
2026-05-05 13:15 28.80951 41.73331 38967 ft 498 kts 105°
2026-05-05 13:15 28.79623 41.81078 38960 ft 498 kts 105°
2026-05-05 13:16 28.78290 41.88831 38963 ft 498 kts 105°
2026-05-05 13:16 28.76953 41.96576 38962 ft 498 kts 105°
2026-05-05 13:17 28.75611 42.04315 38954 ft 498 kts 105°
2026-05-05 13:17 28.74265 42.12057 38957 ft 498 kts 105°
2026-05-05 13:18 28.72916 42.19793 38953 ft 498 kts 105°
2026-05-05 13:18 28.71563 42.27525 38951 ft 498 kts 105°
2026-05-05 13:19 28.70201 42.35259 38946 ft 498 kts 105°
2026-05-05 13:19 28.68839 42.42994 38940 ft 498 kts 105°
2026-05-05 13:20 28.67474 42.50715 38934 ft 498 kts 105°
2026-05-05 13:20 28.66102 42.58441 38922 ft 498 kts 105°
2026-05-05 13:21 28.64737 42.66109 38926 ft 498 kts 105°
2026-05-05 13:21 28.63271 42.73860 38921 ft 497 kts 107°
2026-05-05 13:22 28.61689 42.81507 38928 ft 496 kts 107°
2026-05-05 13:22 28.60100 42.89156 38927 ft 497 kts 107°
2026-05-05 13:23 28.58527 42.96812 38915 ft 497 kts 107°
2026-05-05 13:23 28.56968 43.04418 38928 ft 497 kts 107°
2026-05-05 13:24 28.55394 43.12064 38917 ft 497 kts 107°
2026-05-05 13:24 28.53817 43.19707 38914 ft 496 kts 107°
2026-05-05 13:25 28.52236 43.27351 38919 ft 496 kts 107°
2026-05-05 13:25 28.50652 43.34982 38916 ft 496 kts 107°
2026-05-05 13:26 28.49063 43.42604 38917 ft 496 kts 107°
2026-05-05 13:26 28.47472 43.50232 38919 ft 496 kts 107°
2026-05-05 13:27 28.45874 43.57865 38913 ft 496 kts 108°
2026-05-05 13:27 28.44270 43.65488 38907 ft 496 kts 108°
2026-05-05 13:28 28.42659 43.73111 38901 ft 496 kts 108°
2026-05-05 13:28 28.41319 43.79442 38906 ft 496 kts 108°
2026-05-05 13:29 28.39702 43.87059 38887 ft 496 kts 108°
2026-05-05 13:29 28.38107 43.94680 38881 ft 496 kts 107°
2026-05-05 13:30 28.36524 44.02298 38881 ft 495 kts 107°
2026-05-05 13:30 28.34940 44.09903 38871 ft 495 kts 107°
2026-05-05 13:31 28.33344 44.17518 38864 ft 496 kts 107°
2026-05-05 13:31 28.31744 44.25125 38870 ft 496 kts 107°
2026-05-05 13:32 28.30143 44.32721 38871 ft 495 kts 108°
2026-05-05 13:32 28.28536 44.40317 38872 ft 494 kts 108°
2026-05-05 13:33 28.26927 44.47903 38860 ft 495 kts 108°
2026-05-05 13:33 28.25314 44.55486 38861 ft 494 kts 108°
2026-05-05 13:34 28.23698 44.63064 38859 ft 495 kts 108°
2026-05-05 13:34 28.22076 44.70644 38859 ft 495 kts 108°
2026-05-05 13:35 28.20449 44.78234 38857 ft 495 kts 108°
2026-05-05 13:35 28.18815 44.85824 38850 ft 496 kts 108°
2026-05-05 13:36 28.17176 44.93418 38856 ft 496 kts 108°
2026-05-05 13:36 28.15572 45.01022 38846 ft 498 kts 103°
2026-05-05 13:37 28.15170 45.08897 38850 ft 504 kts 91°
2026-05-05 13:37 28.15885 45.15230 38851 ft 508 kts 79°
2026-05-05 13:38 28.17195 45.21524 38839 ft 509 kts 77°
2026-05-05 13:38 28.18909 45.29233 38843 ft 509 kts 77°
2026-05-05 13:39 28.20544 45.36881 38840 ft 509 kts 78°
2026-05-05 13:39 28.22144 45.44642 38840 ft 509 kts 78°
2026-05-05 13:40 28.23739 45.52471 38832 ft 509 kts 78°
2026-05-05 13:40 28.25325 45.60265 38834 ft 509 kts 78°
2026-05-05 13:41 28.26890 45.67957 38832 ft 509 kts 78°
2026-05-05 13:41 28.28477 45.75782 38833 ft 509 kts 78°
2026-05-05 13:42 28.30062 45.83620 38834 ft 509 kts 78°
2026-05-05 13:42 28.31516 45.90836 38837 ft 509 kts 78°
2026-05-05 13:43 28.33086 45.98640 38834 ft 510 kts 78°
2026-05-05 13:43 28.34540 46.05892 38832 ft 509 kts 78°
2026-05-05 13:44 28.36066 46.13744 38831 ft 509 kts 81°
2026-05-05 13:44 28.37242 46.21659 38836 ft 508 kts 83°
2026-05-05 13:45 28.38310 46.29583 38832 ft 508 kts 83°
2026-05-05 13:45 28.39389 46.37341 38832 ft 508 kts 83°
2026-05-05 13:46 28.40503 46.45159 38829 ft 508 kts 82°
2026-05-05 13:46 28.41609 46.52914 38821 ft 508 kts 83°
2026-05-05 13:47 28.42689 46.60537 38513 ft 513 kts 83°
2026-05-05 13:47 28.43252 46.64533 37933 ft 512 kts 82°
2026-05-05 13:47 28.43787 46.68331 37347 ft 509 kts 82°
2026-05-05 13:48 28.44344 46.72296 36711 ft 507 kts 82°
2026-05-05 13:48 28.44903 46.76280 36065 ft 506 kts 82°
2026-05-05 13:48 28.45446 46.80160 35473 ft 503 kts 82°
2026-05-05 13:48 28.45978 46.83965 35019 ft 499 kts 82°
2026-05-05 13:49 28.46414 46.87093 34639 ft 495 kts 82°
2026-05-05 13:49 28.46689 46.89094 34398 ft 492 kts 82°
2026-05-05 13:49 28.47039 46.91594 34097 ft 490 kts 82°
2026-05-05 13:49 28.47412 46.94371 33754 ft 486 kts 82°
2026-05-05 13:50 28.47733 46.96711 33471 ft 484 kts 82°
2026-05-05 13:50 28.48033 46.98889 33189 ft 482 kts 81°
2026-05-05 13:50 28.48347 47.01044 32923 ft 480 kts 81°
2026-05-05 13:50 28.48653 47.03194 32666 ft 477 kts 82°
2026-05-05 13:51 28.48968 47.05484 32386 ft 475 kts 82°
2026-05-05 13:51 28.49277 47.07693 32112 ft 472 kts 81°
2026-05-05 13:51 28.49601 47.10100 31671 ft 470 kts 89°
2026-05-05 13:51 28.49633 47.13304 31447 ft 462 kts 87°
2026-05-05 13:52 28.49961 47.15991 31262 ft 456 kts 79°
2026-05-05 13:52 28.50377 47.18173 30984 ft 454 kts 77°
2026-05-05 13:52 28.50735 47.20001 30747 ft 453 kts 80°
2026-05-05 13:52 28.51016 47.22053 30450 ft 451 kts 83°
2026-05-05 13:53 28.51282 47.24013 30221 ft 449 kts 78°
2026-05-05 13:53 28.52248 47.26853 29814 ft 444 kts 62°
2026-05-05 13:53 28.53294 47.30082 29397 ft 440 kts 82°
2026-05-05 13:53 28.53521 47.33507 29056 ft 432 kts 89°
2026-05-05 13:54 28.53626 47.36615 28637 ft 430 kts 88°
2026-05-05 13:54 28.53798 47.39495 28267 ft 427 kts 86°
2026-05-05 13:54 28.54013 47.41927 27960 ft 425 kts 83°
2026-05-05 13:54 28.54263 47.43541 27685 ft 425 kts 74°
2026-05-05 13:55 28.54761 47.45297 27060 ft 428 kts 80°
2026-05-05 13:55 28.54702 47.47104 25857 ft 436 kts 115°
2026-05-05 13:55 28.53974 47.48664 25237 ft 442 kts 127°
2026-05-05 13:55 28.53163 47.50052 26113 ft 391 kts 125°
2026-05-05 13:56 28.52545 47.51337 27584 ft 340 kts 116°
2026-05-05 13:56 28.52163 47.52726 28729 ft 312 kts 102°
2026-05-05 13:56 28.52084 47.54786 28641 ft 313 kts 81°
2026-05-05 13:56 28.52879 47.57173 27420 ft 341 kts 51°
2026-05-05 13:57 28.54482 47.59273 26162 ft 369 kts 47°
2026-05-05 13:57 28.55994 47.61720 25434 ft 381 kts 64°
2026-05-05 13:57 28.56921 47.64527 25080 ft 380 kts 76°
2026-05-05 13:57 28.57354 47.67344 24772 ft 378 kts 87°
2026-05-05 13:58 28.57444 47.69706 24411 ft 383 kts 91°
2026-05-05 13:58 28.57467 47.71561 24143 ft 388 kts 91°
2026-05-05 13:58 28.57472 47.74682 23768 ft 393 kts 92°
2026-05-05 13:58 28.57477 47.77764 23166 ft 397 kts 91°
2026-05-05 13:59 28.57553 47.83772 22153 ft 396 kts 90°
2026-05-05 13:59 28.57586 47.85423 21909 ft 395 kts 89°
2026-05-05 14:00 28.57899 47.88968 21265 ft 395 kts 84°
2026-05-05 14:00 28.58007 47.90457 21071 ft 392 kts 89°
2026-05-05 14:00 28.57999 47.92747 20829 ft 386 kts 92°
2026-05-05 14:00 28.57942 47.94421 20650 ft 382 kts 95°
2026-05-05 14:01 28.57861 47.96206 20367 ft 377 kts 102°
2026-05-05 14:01 28.57388 47.98343 19533 ft 390 kts 105°
2026-05-05 14:01 28.57081 48.00258 19094 ft 393 kts 94°
2026-05-05 14:01 28.57103 48.02228 18880 ft 389 kts 85°
2026-05-05 14:02 28.57257 48.03723 18832 ft 382 kts 83°
2026-05-05 14:02 28.57379 48.05637 18673 ft 375 kts 89°
2026-05-05 14:02 28.57530 48.07598 18358 ft 374 kts 76°
2026-05-05 14:02 28.58049 48.09224 18106 ft 371 kts 61°
2026-05-05 14:03 28.58672 48.10423 18077 ft 364 kts 56°
2026-05-05 14:03 28.59470 48.11787 18351 ft 344 kts 54°
2026-05-05 14:03 28.60422 48.13125 18266 ft 336 kts 43°
2026-05-05 14:03 28.61902 48.14318 17329 ft 351 kts 20°
2026-05-05 14:04 28.64227 48.14875 16692 ft 352 kts
2026-05-05 14:04 28.66640 48.14633 16248 ft 346 kts 341°
2026-05-05 14:04 28.68840 48.13617 15877 ft 339 kts 333°
2026-05-05 14:04 28.70963 48.12458 15447 ft 337 kts 332°
2026-05-05 14:05 28.73066 48.11276 14983 ft 337 kts 332°
2026-05-05 14:05 28.75015 48.10184 14575 ft 335 kts 332°
2026-05-05 14:05 28.76829 48.09180 14209 ft 334 kts 332°
2026-05-05 14:05 28.78083 48.08492 13972 ft 333 kts 332°
2026-05-05 14:06 28.79136 48.07919 13805 ft 330 kts 332°
2026-05-05 14:06 28.80440 48.07262 13555 ft 329 kts 338°
2026-05-05 14:06 28.81688 48.06763 13287 ft 329 kts 338°
2026-05-05 14:06 28.82895 48.06241 13050 ft 328 kts 335°
2026-05-05 14:07 28.84057 48.05659 12839 ft 325 kts 332°
2026-05-05 14:07 28.85229 48.04988 12638 ft 323 kts 329°
2026-05-05 14:07 28.87129 48.03675 12260 ft 319 kts 323°
2026-05-05 14:07 28.88671 48.02350 11960 ft 316 kts 323°
2026-05-05 14:08 28.90257 48.01410 11865 ft 307 kts 334°
2026-05-05 14:08 28.92133 48.00580 11752 ft 299 kts 339°
2026-05-05 14:08 28.93759 47.99956 11535 ft 297 kts 339°
2026-05-05 14:08 28.95570 47.99233 11214 ft 296 kts 338°
2026-05-05 14:09 28.97188 47.98549 10869 ft 297 kts 337°
2026-05-05 14:09 28.99092 47.97704 10490 ft 298 kts 336°
2026-05-05 14:09 29.01012 47.96829 10173 ft 296 kts 336°
2026-05-05 14:09 29.02891 47.95961 9853 ft 295 kts 336°
2026-05-05 14:10 29.04784 47.95060 9501 ft 294 kts 335°
2026-05-05 14:10 29.06629 47.94134 9361 ft 283 kts 335°
2026-05-05 14:10 29.08389 47.93247 9207 ft 271 kts 335°
2026-05-05 14:10 29.10095 47.92379 8867 ft 267 kts 334°
2026-05-05 14:11 29.11807 47.91505 8502 ft 271 kts 334°
2026-05-05 14:11 29.13538 47.90624 8283 ft 267 kts 335°
2026-05-05 14:11 29.15207 47.89778 8025 ft 265 kts 335°
2026-05-05 14:11 29.16872 47.88935 7892 ft 255 kts 335°
2026-05-05 14:12 29.18442 47.88140 7720 ft 240 kts 335°
2026-05-05 14:12 29.19959 47.87371 7245 ft 238 kts 335°
2026-05-05 14:12 29.21468 47.86606 6735 ft 237 kts 335°
2026-05-05 14:12 29.22959 47.85850 6250 ft 235 kts 335°
2026-05-05 14:13 29.24453 47.85092 5773 ft 233 kts 335°
2026-05-05 14:13 29.25896 47.84363 5294 ft 231 kts 335°
2026-05-05 14:13 29.26866 47.83871 4973 ft 230 kts 335°
2026-05-05 14:13 29.28818 47.82882 4336 ft 229 kts 335°
2026-05-05 14:14 29.30255 47.82156 3982 ft 228 kts 335°
2026-05-05 14:14 29.31205 47.81671 3766 ft 225 kts 335°
2026-05-05 14:14 29.32710 47.81245 3331 ft 226 kts
2026-05-05 14:14 29.34115 47.81910 3136 ft 215 kts 42°
2026-05-05 14:15 29.35216 47.83702 2846 ft 204 kts 66°
2026-05-05 14:15 29.35569 47.84686 2623 ft 202 kts 76°
2026-05-05 14:15 29.35508 47.86243 2255 ft 198 kts 117°
2026-05-05 14:15 29.34598 47.87371 1977 ft 190 kts 140°
2026-05-05 14:16 29.33559 47.88315 1586 ft 191 kts 147°
2026-05-05 14:16 29.32472 47.89029 1498 ft 169 kts 152°
2026-05-05 14:16 29.31482 47.89587 1469 ft 152 kts 154°
2026-05-05 14:16 29.30542 47.90090 1510 ft 149 kts 154°
2026-05-05 14:17 29.29599 47.90591 1504 ft 150 kts 154°
2026-05-05 14:17 29.28652 47.91095 1470 ft 151 kts 154°
2026-05-05 14:17 29.27686 47.91608 1274 ft 153 kts 154°
2026-05-05 14:17 29.26724 47.92120 1072 ft 151 kts 154°
2026-05-05 14:18 29.25780 47.92622 870 ft 148 kts 154°
2026-05-05 14:18 29.24845 47.93119 680 ft 148 kts 154°
2026-05-05 14:18 29.23907 47.93619 484 ft 150 kts 154°
2026-05-05 14:18 29.22957 47.94128 258 ft 151 kts 154°
2026-05-05 14:19 29.22028 47.94624 183 ft 135 kts 157°
2026-05-05 14:19 29.21374 47.94965 192 ft 72 kts 155°
2026-05-05 14:19 29.21024 47.95151 181 ft 52 kts 155°
2026-05-05 14:19 29.20717 47.95329 183 ft 47 kts 144°
2026-05-05 14:20 29.20597 47.95480 184 ft 18 kts 128°
2026-05-05 14:20 29.20570 47.95604 191 ft 17 kts 58°
2026-05-05 14:20 29.20623 47.95610 185 ft 7 kts 335°
2026-05-05 14:20 29.20667 47.95587 186 ft 7 kts 335°
2026-05-05 14:21 29.20710 47.95563 192 ft 7 kts 334°
2026-05-05 14:21 29.20763 47.95535 196 ft 9 kts 334°
2026-05-05 14:21 29.20827 47.95501 191 ft 11 kts 335°
2026-05-05 14:21 29.20898 47.95464 187 ft 12 kts 335°
2026-05-05 14:22 29.20983 47.95420 193 ft 15 kts 335°
2026-05-05 14:22 29.21091 47.95363 182 ft 19 kts 335°
2026-05-05 14:22 29.21212 47.95298 182 ft 20 kts 335°
2026-05-05 14:22 29.21343 47.95229 180 ft 21 kts 335°
2026-05-05 14:23 29.21466 47.95164 183 ft 20 kts 335°
2026-05-05 14:23 29.21591 47.95097 184 ft 20 kts 335°
2026-05-05 14:23 29.21713 47.95032 183 ft 19 kts 335°
2026-05-05 14:23 29.21833 47.94969 180 ft 20 kts 335°
2026-05-05 14:24 29.21947 47.94971 167 ft 19 kts 56°
2026-05-05 14:24 29.22006 47.95116 163 ft 21 kts 65°
2026-05-05 14:24 29.22065 47.95262 161 ft 20 kts 65°
2026-05-05 14:24 29.22123 47.95403 160 ft 19 kts 65°
2026-05-05 14:25 29.22179 47.95540 159 ft 19 kts 65°
2026-05-05 14:25 29.22233 47.95672 159 ft 18 kts 65°
2026-05-05 14:25 29.22285 47.95799 159 ft 17 kts 65°
2026-05-05 14:25 29.22335 47.95922 159 ft 17 kts 65°
2026-05-05 14:26 29.22384 47.96041 159 ft 16 kts 65°
2026-05-05 14:26 29.22431 47.96155 159 ft 16 kts 65°
2026-05-05 14:26 29.22476 47.96264 159 ft 15 kts 65°
2026-05-05 14:26 29.22518 47.96368 160 ft 15 kts 65°
2026-05-05 14:27 29.22561 47.96473 161 ft 14 kts 65°
2026-05-05 14:27 29.22602 47.96574 163 ft 14 kts 65°
2026-05-05 14:27 29.22671 47.96629 167 ft 13 kts 346°
2026-05-05 14:27 29.22761 47.96588 168 ft 14 kts 340°
2026-05-05 14:28 29.22856 47.96538 168 ft 16 kts 335°
2026-05-05 14:28 29.22965 47.96484 169 ft 18 kts 347°
2026-05-05 14:28 29.23041 47.96571 183 ft 17 kts 65°
2026-05-05 14:28 29.23089 47.96692 191 ft 17 kts 68°
2026-05-05 14:29 29.23147 47.96836 177 ft 23 kts 49°
2026-05-05 14:29 29.23294 47.96804 177 ft 23 kts 335°
2026-05-05 14:29 29.23401 47.96795 174 ft 11 kts 70°
2026-05-05 14:29 29.23442 47.96908 168 ft 15 kts 63°
2026-05-05 14:30 29.23481 47.97004 166 ft 15 kts 66°
2026-05-05 14:30 29.23523 47.97114 166 ft 15 kts 63°